Voltar ao catálogo

TITAN 3C TRANSTAGE DEB

LostHEO
NORAD 27879·DEBRIS·🇺🇸 United States

Lançado Dec 21, 1965 de Cape Canaveral Space Force Station

Loading…

Próximas Passagens (próximas 24 horas)

TLE

ObsoletoSource: Space-Track

Época: Jun 17, 2025, 10:15 UTC

1 27879U 65108BQ  25168.42769550 -.00000213  00000-0 -42390-2 0  9991
2 27879  26.8713  69.6387 6765921 220.9809 353.6539  2.60602678110190

Acompanhe TITAN 3C TRANSTAGE DEB em tempo real com AllMySat

Download on the App Store